Weather History for Panama City Tyndall AFB, FL

Change the Weather History Date:

Monday, April 29, 2013

  Actual Average Record
Temperature  
Mean Temperature 71 °F -  
Max Temperature 77 °F 76 °F 84 °F (2001)
Min Temperature 64 °F 61 °F 54 °F (2008)
Cooling Degree Days 6    
Growing Degree Days 21 (Base 50)    
Moisture  
Dew Point 69 °F    
Average Humidity 99    
Maximum Humidity 100    
Minimum Humidity 88    
Precipitation  
Precipitation 0.00 in - - ()
Sea Level Pressure  
Sea Level Pressure 29.97 in    
Wind  
Wind Speed 5 mph (ESE)    
Max Wind Speed 16 mph    
Max Gust Speed -    
Visibility 7 miles    
Events Fog    
Averages and records for this station are not official NWS values.
T = Trace of Precipitation, MM = Missing Value Source: NWS Daily Summary

Daily Weather History Graph

Daily Weather History Graph

Search for Another Location

Airport:

Trip Planner

Search our weather history database for the weather conditions in past years. The results will help you decide how hot, cold, wet, or windy it might be!

Date:

Astronomy

Apr. 29, 2013 Rise Set
Actual Time 6:00 AM CDT 7:18 PM CDT
Civil Twilight 5:35 AM CDT 7:44 PM CDT
Nautical Twilight 5:05 AM CDT 8:14 PM CDT
Astronomical Twilight 4:34 AM CDT 8:45 PM CDT
Moon 11:37 PM CDT (4/29) 9:27 AM CDT (4/29)
Length of Visible Light 14h 08m
Length of Day
13h 17m
Waning Gibbous, 80% of the Moon is Illuminated
Apr 29
Waning Gibbous
May 2
Last Quarter
May 9
New
May 17
First Quarter
May 24
Full

Hourly Weather History & Observations

Time (CDT) Temp. Dew Point Humidity Pressure Visibility Wind Dir Wind Speed Gust Speed Precip Events Conditions
12:58 AM 68.7 °F 68.7 °F 100% 29.99 in 10.0 mi SE 4.6 mph - N/A   Mostly Cloudy
1:58 AM 68.4 °F 68.4 °F 100% 29.98 in 10.0 mi East 2.3 mph - N/A   Scattered Clouds
2:08 AM 68.0 °F 68.0 °F 100% 29.97 in 10.0 mi ENE 3.5 mph - N/A   Mostly Cloudy
2:33 AM 68.0 °F 68.0 °F 100% 29.97 in 10.0 mi ENE 3.5 mph - N/A   Overcast
2:37 AM 68.0 °F 68.0 °F 100% 29.97 in 10.0 mi ENE 5.8 mph - N/A   Overcast
2:58 AM 67.8 °F 67.8 °F 100% 29.98 in 10.0 mi East 4.6 mph - N/A   Overcast
3:08 AM 68.0 °F 68.0 °F 100% 29.97 in 10.0 mi East 3.5 mph - N/A   Overcast
3:18 AM 68.0 °F 68.0 °F 100% 29.97 in 10.0 mi East 2.3 mph - N/A   Overcast
3:23 AM 68.0 °F 68.0 °F 100% 29.97 in 10.0 mi East 3.5 mph - N/A   Overcast
3:33 AM 68.0 °F 68.0 °F 100% 29.97 in 10.0 mi Variable 4.6 mph - N/A   Mostly Cloudy
3:43 AM 68.0 °F 68.0 °F 100% 29.96 in 9.0 mi East 3.5 mph - N/A   Mostly Cloudy
3:58 AM 67.8 °F 67.8 °F 100% 29.97 in 9.0 mi ENE 5.8 mph - N/A   Mostly Cloudy
4:03 AM 68.0 °F 68.0 °F 100% 29.96 in 8.0 mi ENE 5.8 mph - N/A   Mostly Cloudy
4:08 AM 68.0 °F 68.0 °F 100% 29.96 in 8.0 mi ENE 4.6 mph - N/A   Mostly Cloudy
4:18 AM 68.0 °F 68.0 °F 100% 29.96 in 8.0 mi East 2.3 mph - N/A   Scattered Clouds
4:28 AM 68.0 °F 68.0 °F 100% 29.95 in 9.0 mi East 2.3 mph - N/A   Mostly Cloudy
4:37 AM 68.0 °F 68.0 °F 100% 29.96 in 9.0 mi Variable 1.2 mph - N/A   Mostly Cloudy
4:52 AM 68.0 °F 68.0 °F 100% 29.96 in 8.0 mi East 3.5 mph - N/A   Overcast
4:58 AM 67.5 °F 67.5 °F 100% 29.97 in 7.0 mi East 4.6 mph - N/A   Overcast
5:03 AM 68.0 °F 68.0 °F 100% 29.95 in 6.0 mi East 4.6 mph - N/A   Overcast
5:08 AM 68.0 °F 68.0 °F 100% 29.95 in 5.0 mi East 4.6 mph - N/A   Mostly Cloudy
5:13 AM 68.0 °F 68.0 °F 100% 29.95 in 3.0 mi East 6.9 mph - N/A   Mostly Cloudy
5:18 AM 68.0 °F 68.0 °F 100% 29.95 in 3.0 mi East 5.8 mph - N/A   Mostly Cloudy
5:23 AM 68.0 °F 68.0 °F 100% 29.95 in 2.5 mi East 6.9 mph - N/A   Mostly Cloudy
5:28 AM 68.0 °F 68.0 °F 100% 29.96 in 1.8 mi East 6.9 mph - N/A   Mostly Cloudy
5:33 AM 68.0 °F 68.0 °F 100% 29.96 in 1.2 mi ESE 8.1 mph - N/A   Mostly Cloudy
5:38 AM 66.2 °F 66.2 °F 100% 29.95 in 1.5 mi East 6.9 mph - N/A   Overcast
5:48 AM 66.2 °F 66.2 °F 100% 29.96 in 2.0 mi East 3.5 mph - N/A   Overcast
5:53 AM 66.2 °F 66.2 °F 100% 29.96 in 2.5 mi East 3.5 mph - N/A   Overcast
5:58 AM 66.9 °F 66.9 °F 100% 29.97 in 1.5 mi ENE 3.5 mph - N/A   Overcast
6:03 AM 66.2 °F 66.2 °F 100% 29.96 in 2.0 mi East 3.5 mph - N/A   Overcast
6:08 AM 66.2 °F 66.2 °F 100% 29.96 in 1.0 mi East 4.6 mph - N/A   Mist
6:13 AM 66.2 °F 66.2 °F 100% 29.97 in 0.5 mi East 3.5 mph - N/A Fog Fog
6:28 AM 66.2 °F 66.2 °F 100% 29.97 in 0.8 mi East 3.5 mph - N/A   Mist
6:33 AM 68.0 °F 68.0 °F 100% 29.98 in 1.0 mi East 2.3 mph - N/A   Mist
6:38 AM 68.0 °F 68.0 °F 100% 29.98 in 1.0 mi ENE 4.6 mph - N/A   Mist
6:43 AM 68.0 °F 68.0 °F 100% 29.97 in 0.8 mi East 4.6 mph - N/A   Mist
6:53 AM 68.0 °F 68.0 °F 100% 29.97 in 1.0 mi ENE 3.5 mph - N/A   Mist
6:58 AM 67.5 °F 67.5 °F 100% 29.99 in 1.0 mi East 4.6 mph - N/A   Mist
7:08 AM 68.0 °F 68.0 °F 100% 29.98 in 4.0 mi Variable 3.5 mph - N/A   Overcast
7:28 AM 68.0 °F 68.0 °F 100% 29.98 in 1.0 mi ESE 4.6 mph - N/A   Overcast
7:33 AM 68.0 °F 68.0 °F 100% 29.98 in 1.5 mi East 3.5 mph - N/A   Overcast
7:43 AM 68.0 °F 68.0 °F 100% 29.98 in 2.0 mi ESE 6.9 mph - N/A   Overcast
7:53 AM 68.0 °F 68.0 °F 100% 29.98 in 2.0 mi ESE 8.1 mph - N/A   Overcast
7:58 AM 67.8 °F 67.8 °F 100% 29.99 in 2.0 mi East 5.8 mph - N/A   Overcast
8:03 AM 68.0 °F 68.0 °F 100% 29.98 in 10.0 mi ESE 6.9 mph - N/A   Overcast
8:38 AM 69.8 °F 69.8 °F 100% 29.99 in 10.0 mi ESE 6.9 mph - N/A   Overcast
8:48 AM 69.8 °F 69.8 °F 100% 29.99 in 10.0 mi ESE 5.8 mph - N/A   Overcast
8:58 AM 70.9 °F 70.9 °F 100% 30.00 in 10.0 mi East 4.6 mph - N/A   Overcast
9:03 AM 71.6 °F 71.6 °F 100% 29.99 in 10.0 mi Variable 4.6 mph - N/A   Overcast
9:08 AM 71.6 °F 71.6 °F 100% 29.99 in 10.0 mi SE 4.6 mph - N/A   Mostly Cloudy
9:18 AM 73.4 °F 73.4 °F 100% 30.00 in 10.0 mi SSE 12.7 mph - N/A   Mostly Cloudy
9:29 AM 75.2 °F 75.2 °F 100% 29.98 in 10.0 mi South 10.4 mph - N/A   Mostly Cloudy
9:33 AM 75.2 °F 75.2 °F 100% 29.99 in 10.0 mi SSE 11.5 mph - N/A   Mostly Cloudy
9:58 AM 75.2 °F 73.9 °F 96% 30.01 in 10.0 mi SSE 11.5 mph - N/A   Mostly Cloudy
10:58 AM 76.6 °F 73.8 °F 91% 30.01 in 10.0 mi South 10.4 mph - N/A   Mostly Cloudy
11:58 AM 77.5 °F 73.6 °F 88% 30.00 in 10.0 mi South 16.1 mph - N/A   Mostly Cloudy
12:58 PM 75.0 °F 73.0 °F 94% 29.98 in 10.0 mi South 16.1 mph - N/A   Mostly Cloudy
1:58 PM 75.0 °F 73.9 °F 96% 29.98 in 10.0 mi South 10.4 mph - N/A   Mostly Cloudy
2:58 PM 76.3 °F 74.1 °F 93% 29.96 in 10.0 mi South 12.7 mph - N/A   Mostly Cloudy
3:58 PM 72.7 °F 72.7 °F 100% 29.96 in 10.0 mi South 8.1 mph - 0.00 in   Mostly Cloudy
4:58 PM 72.5 °F 72.5 °F 100% 29.96 in 10.0 mi SSW 8.1 mph - N/A   Scattered Clouds
5:18 PM 71.6 °F 71.6 °F 100% 29.95 in 10.0 mi SSW 6.9 mph - N/A   Mostly Cloudy
5:23 PM 71.6 °F 71.6 °F 100% 29.95 in 10.0 mi SSW 5.8 mph - N/A   Mostly Cloudy
5:59 PM 71.6 °F 69.8 °F 94% 29.96 in 10.0 mi West 4.6 mph - N/A   Mostly Cloudy
6:56 PM 69.8 °F 69.8 °F 100% 29.94 in 10.0 mi East 8.1 mph - N/A   Mostly Cloudy
7:58 PM 67.6 °F 67.6 °F 100% 29.96 in 10.0 mi East 4.6 mph - N/A   Partly Cloudy
8:58 PM 66.6 °F 66.6 °F 100% 29.96 in 10.0 mi ESE 3.5 mph - N/A   Clear
9:58 PM 66.6 °F 66.6 °F 100% 29.97 in 10.0 mi East 3.5 mph - N/A   Clear
10:58 PM 65.3 °F 65.3 °F 100% 29.97 in 10.0 mi East 5.8 mph - N/A   Clear
11:58 PM 64.9 °F 64.9 °F 100% 29.97 in 10.0 mi East 3.5 mph - N/A   Clear